Time,TemperatureF,DewpointF,PressureIn,WindDirection,WindDirectionDegrees,WindSpeedMPH,WindSpeedGustMPH,Humidity,HourlyPrecipIn,Conditions,Clouds,dailyrainin,SoftwareType,DateUTC
2013-03-06 00:02:00,-999.0,-99.9,30.07,SSW,209,13.0,18.0,-999,-99.99,,,-99.99,,2013-03-06 05:02:00,
2013-03-06 00:12:00,-999.0,-99.9,30.07,SW,214,12.0,19.0,-999,-99.99,,,-99.99,,2013-03-06 05:12:00,
2013-03-06 00:23:00,65.0,-99.9,30.07,North,-999,-999.0,-999.0,-999,-99.99,,,-99.99,,2013-03-06 05:23:00,
2013-03-06 00:32:00,65.0,-99.9,30.07,North,-999,-999.0,-999.0,-999,-99.99,,,-99.99,,2013-03-06 05:32:00,
2013-03-06 00:42:00,65.0,-99.9,30.06,North,-999,-999.0,-999.0,-999,-99.99,,,-99.99,,2013-03-06 05:42:00,
2013-03-06 00:52:00,65.0,-99.9,30.06,North,-999,-999.0,-999.0,-999,-99.99,,,-99.99,,2013-03-06 05:52:00,
2013-03-06 01:02:00,-999.0,-99.9,30.06,SSW,212,13.0,18.0,-999,-99.99,,,-99.99,,2013-03-06 06:02:00,
2013-03-06 01:22:00,-999.0,-99.9,30.06,SW,220,10.0,13.0,-999,-99.99,,,-99.99,,2013-03-06 06:22:00,
2013-03-06 01:42:00,65.0,-99.9,30.05,North,-999,-999.0,-999.0,-999,-99.99,,,-99.99,,2013-03-06 06:42:00,
2013-03-06 01:52:00,-999.0,-99.9,30.04,SW,222,8.0,12.0,-999,-99.99,,,-99.99,,2013-03-06 06:52:00,
2013-03-06 02:02:00,66.0,-99.9,30.04,North,-999,-999.0,-999.0,-999,-99.99,,,-99.99,,2013-03-06 07:02:00,
2013-03-06 02:22:00,66.0,-99.9,30.03,North,-999,-999.0,-999.0,-999,-99.99,,,-99.99,,2013-03-06 07:22:00,
2013-03-06 02:32:00,-999.0,-99.9,30.03,SW,227,12.0,17.0,-999,-99.99,,,-99.99,,2013-03-06 07:32:00,
2013-03-06 02:42:00,66.0,-99.9,30.03,North,-999,-999.0,-999.0,-999,-99.99,,,-99.99,,2013-03-06 07:42:00,
2013-03-06 02:52:00,-999.0,-99.9,30.02,SW,224,11.0,15.0,-999,-99.99,,,-99.99,,2013-03-06 07:52:00,
2013-03-06 03:01:00,-999.0,-99.9,30.02,SW,223,10.0,16.0,-999,-99.99,,,-99.99,,2013-03-06 08:01:00,
2013-03-06 03:11:00,-999.0,-99.9,30.01,SW,224,9.0,12.0,-999,-99.99,,,-99.99,,2013-03-06 08:11:00,
2013-03-06 03:22:00,66.0,-99.9,30.01,North,-999,-999.0,-999.0,-999,-99.99,,,-99.99,,2013-03-06 08:22:00,
2013-03-06 03:32:00,-999.0,-99.9,30.01,SW,232,10.0,14.0,-999,-99.99,,,-99.99,,2013-03-06 08:32:00,
2013-03-06 03:42:00,66.0,-99.9,30.01,North,-999,-999.0,-999.0,-999,-99.99,,,-99.99,,2013-03-06 08:42:00,
2013-03-06 03:52:00,66.0,-99.9,30.01,North,-999,-999.0,-999.0,-999,-99.99,,,-99.99,,2013-03-06 08:52:00,
2013-03-06 04:02:00,66.0,-99.9,30.00,North,-999,-999.0,-999.0,-999,-99.99,,,-99.99,,2013-03-06 09:02:00,
2013-03-06 04:12:00,-999.0,-99.9,30.01,WSW,252,12.0,16.0,-999,-99.99,,,-99.99,,2013-03-06 09:12:00,
2013-03-06 04:22:00,-999.0,-99.9,30.00,West,281,10.0,14.0,-999,-99.99,,,-99.99,,2013-03-06 09:22:00,
2013-03-06 04:42:00,-999.0,-99.9,30.00,WNW,284,12.0,16.0,-999,-99.99,,,-99.99,,2013-03-06 09:42:00,
2013-03-06 04:52:00,-999.0,-99.9,30.00,West,261,10.0,16.0,-999,-99.99,,,-99.99,,2013-03-06 09:52:00,
2013-03-06 05:02:00,-999.0,-99.9,30.00,WSW,256,11.0,18.0,-999,-99.99,,,-99.99,,2013-03-06 10:02:00,
2013-03-06 05:11:00,-999.0,-99.9,30.00,WSW,257,11.0,15.0,-999,-99.99,,,-99.99,,2013-03-06 10:11:00,
2013-03-06 05:22:00,66.0,-99.9,30.00,North,-999,-999.0,-999.0,-999,-99.99,,,-99.99,,2013-03-06 10:22:00,
2013-03-06 05:32:00,-999.0,-99.9,30.00,West,270,9.0,13.0,-999,-99.99,,,-99.99,,2013-03-06 10:32:00,
2013-03-06 05:42:00,67.0,-99.9,30.01,North,-999,-999.0,-999.0,-999,-99.99,,,-99.99,,2013-03-06 10:42:00,
2013-03-06 05:52:00,-999.0,-99.9,30.03,NNW,346,15.0,21.0,-999,-99.99,,,-99.99,,2013-03-06 10:52:00,
2013-03-06 06:23:00,-999.0,-99.9,30.05,NNW,342,11.0,23.0,-999,-99.99,,,-99.99,,2013-03-06 11:23:00,
2013-03-06 06:43:00,58.0,-99.9,30.07,North,-999,-999.0,-999.0,-999,-99.99,,,-99.99,,2013-03-06 11:43:00,
2013-03-06 06:53:00,-999.0,-99.9,30.07,NNW,347,14.0,22.0,-999,-99.99,,,-99.99,,2013-03-06 11:53:00,
2013-03-06 07:02:00,-999.0,-99.9,30.08,NNW,341,14.0,24.0,-999,-99.99,,,-99.99,,2013-03-06 12:02:00,
2013-03-06 07:22:00,-999.0,-99.9,30.08,NNW,344,12.0,26.0,-999,-99.99,,,-99.99,,2013-03-06 12:22:00,
2013-03-06 07:43:00,-999.0,-99.9,30.10,NNW,342,15.0,20.0,-999,-99.99,,,-99.99,,2013-03-06 12:43:00,
2013-03-06 08:02:00,-999.0,-99.9,30.11,North,353,16.0,25.0,-999,-99.99,,,-99.99,,2013-03-06 13:02:00,
2013-03-06 08:12:00,-999.0,-99.9,30.11,NNW,343,14.0,25.0,-999,-99.99,,,-99.99,,2013-03-06 13:12:00,
2013-03-06 08:22:00,-999.0,-99.9,30.12,North,353,12.0,18.0,-999,-99.99,,,-99.99,,2013-03-06 13:22:00,
2013-03-06 08:32:00,-999.0,-99.9,30.14,North,351,11.0,19.0,-999,-99.99,,,-99.99,,2013-03-06 13:32:00,
2013-03-06 08:42:00,-999.0,-99.9,30.14,NNW,335,16.0,23.0,-999,-99.99,,,-99.99,,2013-03-06 13:42:00,
2013-03-06 08:52:00,-999.0,-99.9,30.14,North,356,12.0,23.0,-999,-99.99,,,-99.99,,2013-03-06 13:52:00,
2013-03-06 09:02:00,-999.0,-99.9,30.14,North,2,14.0,23.0,-999,-99.99,,,-99.99,,2013-03-06 14:02:00,
2013-03-06 09:12:00,-999.0,-99.9,30.14,North,359,15.0,22.0,-999,-99.99,,,-99.99,,2013-03-06 14:12:00,
2013-03-06 09:32:00,-999.0,-99.9,30.15,North,357,16.0,23.0,-999,-99.99,,,-99.99,,2013-03-06 14:32:00,
2013-03-06 09:42:00,55.0,-99.9,30.15,North,-999,-999.0,-999.0,-999,-99.99,,,-99.99,,2013-03-06 14:42:00,
2013-03-06 09:53:00,56.0,-99.9,30.16,North,-999,-999.0,-999.0,-999,-99.99,,,-99.99,,2013-03-06 14:53:00,
2013-03-06 10:02:00,-999.0,-99.9,30.16,NNW,337,11.0,24.0,-999,-99.99,,,-99.99,,2013-03-06 15:02:00,
2013-03-06 10:22:00,-999.0,-99.9,30.17,NNW,341,13.0,19.0,-999,-99.99,,,-99.99,,2013-03-06 15:22:00,
2013-03-06 10:32:00,-999.0,-99.9,30.16,North,0,13.0,19.0,-999,-99.99,,,-99.99,,2013-03-06 15:32:00,
2013-03-06 10:42:00,-999.0,-99.9,30.16,NNW,348,10.0,20.0,-999,-99.99,,,-99.99,,2013-03-06 15:42:00,
2013-03-06 10:52:00,57.0,-99.9,30.16,North,-999,-999.0,-999.0,-999,-99.99,,,-99.99,,2013-03-06 15:52:00,
2013-03-06 11:02:00,-999.0,-99.9,30.16,North,352,12.0,17.0,-999,-99.99,,,-99.99,,2013-03-06 16:02:00,
2013-03-06 11:12:00,-999.0,-99.9,30.16,NW,308,16.0,21.0,-999,-99.99,,,-99.99,,2013-03-06 16:12:00,
2013-03-06 11:22:00,-999.0,-99.9,30.16,North,350,13.0,22.0,-999,-99.99,,,-99.99,,2013-03-06 16:22:00,
2013-03-06 11:32:00,-999.0,-99.9,30.17,North,349,14.0,25.0,-999,-99.99,,,-99.99,,2013-03-06 16:32:00,
2013-03-06 11:42:00,-999.0,-99.9,30.16,NW,311,13.0,21.0,-999,-99.99,,,-99.99,,2013-03-06 16:42:00,
2013-03-06 11:52:00,-999.0,-99.9,30.16,NNW,335,13.0,21.0,-999,-99.99,,,-99.99,,2013-03-06 16:52:00,
2013-03-06 12:01:00,58.0,-99.9,30.15,North,-999,-999.0,-999.0,-999,-99.99,,,-99.99,,2013-03-06 17:01:00,
2013-03-06 12:11:00,-999.0,-99.9,30.15,NW,315,16.0,21.0,-999,-99.99,,,-99.99,,2013-03-06 17:11:00,
2013-03-06 12:22:00,-999.0,-99.9,30.14,NNW,332,12.0,20.0,-999,-99.99,,,-99.99,,2013-03-06 17:22:00,
2013-03-06 12:32:00,-999.0,-99.9,30.14,NNW,346,11.0,19.0,-999,-99.99,,,-99.99,,2013-03-06 17:32:00,
2013-03-06 12:42:00,-999.0,-99.9,30.14,NW,324,14.0,21.0,-999,-99.99,,,-99.99,,2013-03-06 17:42:00,
2013-03-06 12:53:00,-999.0,-99.9,30.13,NW,309,18.0,22.0,-999,-99.99,,,-99.99,,2013-03-06 17:53:00,
2013-03-06 13:29:00,-999.0,-99.9,30.11,NW,304,18.0,26.0,-999,-99.99,,,-99.99,,2013-03-06 18:29:00,
2013-03-06 13:42:00,-999.0,-99.9,30.11,NW,310,17.0,23.0,-999,-99.99,,,-99.99,,2013-03-06 18:42:00,
2013-03-06 13:53:00,-999.0,-99.9,30.10,WNW,291,18.0,23.0,-999,-99.99,,,-99.99,,2013-03-06 18:53:00,
2013-03-06 14:02:00,-999.0,-99.9,30.10,NW,310,17.0,27.0,-999,-99.99,,,-99.99,,2013-03-06 19:02:00,
2013-03-06 14:22:00,58.0,-99.9,30.10,North,-999,-999.0,-999.0,-999,-99.99,,,-99.99,,2013-03-06 19:22:00,
2013-03-06 14:33:00,-999.0,-99.9,30.10,NW,307,21.0,25.0,-999,-99.99,,,-99.99,,2013-03-06 19:33:00,
2013-03-06 14:43:00,58.0,-99.9,30.10,North,-999,-999.0,-999.0,-999,-99.99,,,-99.99,,2013-03-06 19:43:00,
2013-03-06 14:53:00,58.0,-99.9,30.10,North,-999,-999.0,-999.0,-999,-99.99,,,-99.99,,2013-03-06 19:53:00,
2013-03-06 15:02:00,-999.0,-99.9,30.09,NW,306,17.0,22.0,-999,-99.99,,,-99.99,,2013-03-06 20:02:00,
2013-03-06 15:23:00,57.0,-99.9,30.09,North,-999,-999.0,-999.0,-999,-99.99,,,-99.99,,2013-03-06 20:23:00,
2013-03-06 15:33:00,-999.0,-99.9,30.09,NW,323,13.0,23.0,-999,-99.99,,,-99.99,,2013-03-06 20:33:00,
2013-03-06 15:43:00,58.0,-99.9,30.09,North,-999,-999.0,-999.0,-999,-99.99,,,-99.99,,2013-03-06 20:43:00,
2013-03-06 15:53:00,58.0,-99.9,30.09,North,-999,-999.0,-999.0,-999,-99.99,,,-99.99,,2013-03-06 20:53:00,
2013-03-06 16:12:00,-999.0,-99.9,30.09,WNW,301,16.0,28.0,-999,-99.99,,,-99.99,,2013-03-06 21:12:00,
2013-03-06 16:23:00,-999.0,-99.9,30.09,NW,305,17.0,26.0,-999,-99.99,,,-99.99,,2013-03-06 21:23:00,
2013-03-06 16:33:00,-999.0,-99.9,30.09,NW,307,19.0,24.0,-999,-99.99,,,-99.99,,2013-03-06 21:33:00,
2013-03-06 16:43:00,-999.0,-99.9,30.09,WNW,300,18.0,22.0,-999,-99.99,,,-99.99,,2013-03-06 21:43:00,
2013-03-06 16:52:00,58.0,-99.9,30.09,North,-999,-999.0,-999.0,-999,-99.99,,,-99.99,,2013-03-06 21:52:00,
2013-03-06 17:02:00,58.0,-99.9,30.09,North,-999,-999.0,-999.0,-999,-99.99,,,-99.99,,2013-03-06 22:02:00,
2013-03-06 17:12:00,-999.0,-99.9,30.09,WNW,299,19.0,24.0,-999,-99.99,,,-99.99,,2013-03-06 22:12:00,
2013-03-06 17:22:00,58.0,-99.9,30.09,North,-999,-999.0,-999.0,-999,-99.99,,,-99.99,,2013-03-06 22:22:00,
2013-03-06 17:42:00,-999.0,-99.9,30.08,NW,311,19.0,27.0,-999,-99.99,,,-99.99,,2013-03-06 22:42:00,
2013-03-06 17:52:00,57.0,-99.9,30.09,North,-999,-999.0,-999.0,-999,-99.99,,,-99.99,,2013-03-06 22:52:00,
2013-03-06 18:02:00,57.0,-99.9,30.09,North,-999,-999.0,-999.0,-999,-99.99,,,-99.99,,2013-03-06 23:02:00,
2013-03-06 18:11:00,-999.0,-99.9,30.09,WNW,293,14.0,20.0,-999,-99.99,,,-99.99,,2013-03-06 23:11:00,
2013-03-06 18:22:00,57.0,-99.9,30.09,North,-999,-999.0,-999.0,-999,-99.99,,,-99.99,,2013-03-06 23:22:00,
2013-03-06 18:32:00,57.0,-99.9,30.09,North,-999,-999.0,-999.0,-999,-99.99,,,-99.99,,2013-03-06 23:32:00,
2013-03-06 18:42:00,57.0,-99.9,30.10,North,-999,-999.0,-999.0,-999,-99.99,,,-99.99,,2013-03-06 23:42:00,
2013-03-06 18:52:00,57.0,-99.9,30.10,North,-999,-999.0,-999.0,-999,-99.99,,,-99.99,,2013-03-06 23:52:00,
2013-03-06 19:22:00,-999.0,-99.9,30.11,NW,316,14.0,20.0,-999,-99.99,,,-99.99,,2013-03-07 00:22:00,
2013-03-06 19:32:00,56.0,-99.9,30.11,North,-999,-999.0,-999.0,-999,-99.99,,,-99.99,,2013-03-07 00:32:00,
2013-03-06 19:42:00,-999.0,-99.9,30.11,NW,313,12.0,14.0,-999,-99.99,,,-99.99,,2013-03-07 00:42:00,
2013-03-06 19:52:00,-999.0,-99.9,30.11,NW,307,10.0,15.0,-999,-99.99,,,-99.99,,2013-03-07 00:52:00,
2013-03-06 20:02:00,56.0,-99.9,30.12,North,-999,-999.0,-999.0,-999,-99.99,,,-99.99,,2013-03-07 01:02:00,
2013-03-06 20:12:00,-999.0,-99.9,30.12,NNW,337,9.0,13.0,-999,-99.99,,,-99.99,,2013-03-07 01:12:00,
2013-03-06 20:22:00,-999.0,-99.9,30.13,NW,314,8.0,11.0,-999,-99.99,,,-99.99,,2013-03-07 01:22:00,
2013-03-06 20:42:00,-999.0,-99.9,30.13,NW,305,9.0,11.0,-999,-99.99,,,-99.99,,2013-03-07 01:42:00,
2013-03-06 20:52:00,56.0,-99.9,30.13,North,-999,-999.0,-999.0,-999,-99.99,,,-99.99,,2013-03-07 01:52:00,
2013-03-06 21:11:00,-999.0,-99.9,30.13,NW,312,7.0,14.0,-999,-99.99,,,-99.99,,2013-03-07 02:11:00,
2013-03-06 21:22:00,56.0,-99.9,30.14,North,-999,-999.0,-999.0,-999,-99.99,,,-99.99,,2013-03-07 02:22:00,
2013-03-06 21:32:00,-999.0,-99.9,30.14,NW,312,8.0,12.0,-999,-99.99,,,-99.99,,2013-03-07 02:32:00,
2013-03-06 21:42:00,-999.0,-99.9,30.14,NW,312,8.0,12.0,-999,-99.99,,,-99.99,,2013-03-07 02:42:00,
2013-03-06 21:52:00,-999.0,-99.9,30.14,NW,312,8.0,12.0,-999,-99.99,,,-99.99,,2013-03-07 02:52:00,
2013-03-06 22:02:00,-999.0,-99.9,30.15,NW,312,6.0,9.0,-999,-99.99,,,-99.99,,2013-03-07 03:02:00,
2013-03-06 22:12:00,-999.0,-99.9,30.15,NW,309,7.0,10.0,-999,-99.99,,,-99.99,,2013-03-07 03:12:00,
2013-03-06 22:22:00,-999.0,-99.9,30.16,NW,316,5.0,8.0,-999,-99.99,,,-99.99,,2013-03-07 03:22:00,
2013-03-06 22:42:00,56.0,-99.9,30.16,North,-999,-999.0,-999.0,-999,-99.99,,,-99.99,,2013-03-07 03:42:00,
2013-03-06 22:52:00,56.0,-99.9,30.17,North,-999,-999.0,-999.0,-999,-99.99,,,-99.99,,2013-03-07 03:52:00,
2013-03-06 23:02:00,56.0,-99.9,30.16,North,-999,-999.0,-999.0,-999,-99.99,,,-99.99,,2013-03-07 04:02:00,
2013-03-06 23:12:00,-999.0,-99.9,30.17,NW,317,6.0,9.0,-999,-99.99,,,-99.99,,2013-03-07 04:12:00,
2013-03-06 23:22:00,56.0,-99.9,30.16,North,-999,-999.0,-999.0,-999,-99.99,,,-99.99,,2013-03-07 04:22:00,
2013-03-06 23:32:00,-999.0,-99.9,30.17,North,359,8.0,11.0,-999,-99.99,,,-99.99,,2013-03-07 04:32:00,
2013-03-06 23:42:00,55.0,-99.9,30.17,North,-999,-999.0,-999.0,-999,-99.99,,,-99.99,,2013-03-07 04:42:00,
2013-03-06 23:52:00,55.0,-99.9,30.17,North,-999,-999.0,-999.0,-999,-99.99,,,-99.99,,2013-03-07 04:52:00,